Location: Härggis
(46.9540°N, 8.4897°E)
Time: 20:39:42
(UTC+00:00)

SL-16 R/B - Pass Details

Date: 06 October 2022
Orbit: 985 x 1007 km, 99.6° (Epoch: 05 December)

Event Time Altitude Azimuth Distance (km) Brightness Sun altitude
Exits shadow 23:23:40 13° 29° (NNE) 2,576 5.1 -48.4°
Drops below altitude 10° 23:24:54 10° 18° (NNE) 2,780 5.4 -48.4°
Sets 23:28:35 0° 356° (N) 3,738 6.2 -48.3°
